Погода в Волчихе

Погода в Волчихе : погода сейчас, прогноз погоды и архив. Всё, что Вы хотите узнать о погоде в Волчихе!

Хотите узнать прогноз погоды в Волчихе? Тогда Вам сюда: Погода в Волчихе

Поиск расширенной информации на нашем сайте:

Полезная информация: Модифицированные штукатурные смеси.

Другие новости

Новости СМИ2

Главная страница сайта

Новости сайта

03.07.2017

Напоминаем, что на нашем специализированном сайте Метеоцентр.Азия вы можете получить высокодетализированные автоматические прогнозы погоды по пунктам России, СНГ и мира в авиационном формате (включающие направление и скорость ветра, видимость, явления погоды, количество и форму облачности, нижнюю и верхнюю границу облачности).

Рекомендуем: Грузоперевозки предложения услуг в подольске грузоперевозки подольск недорого.

Погода в Волчихе - сегодня

Время (UTC), дата Ветер
(°,м/с) 
Видим.   Явления Облачность Т
(°С)
Тd
(°С)
f(%) Тe
(°С)
Pmin
(гПа)
dP
(гПа)
Po
(мм)
O2
(г/м3)
Тmin Tmax R s Состояние
почвы
09 21.04.18 210 (ЮЗ) 5{12}  20000 м    4/0 верхняя 
[Ci fib]
+18.7 -1.9 25 +19  1014.7  -1.6  743  280           
12 21.04.18 170 (Ю) 7{10}  20000 м    4/3 1000 м верхняя 
[Cu hum|Ci fib]
+17.4 -3 25 +17  1013.5  -1.3  742  281    +19.2       
15 21.04.18 140 (ЮВ) 20000 м    9/0 средняя, верхняя 
[Ac As|Ci]
+11.3 -4.7 32 +11  1013.1  -0.9  741  287           
18 21.04.18 170 (Ю) 20000 м    3/0 верхняя 
[Ci fib]
+10.4 -4 36 +9  1011.9  -1.3  740  288           
21 21.04.18 180 (Ю) 20000 м    3/0 верхняя 
[Ci fib]
+6.8 -1.8 54 +6  1011.4  -0.8  740  291           
00 22.04.18 180 (Ю) 20000 м    5/0 верхняя 
[Ci]
+5.9 -1.3 60 +5  1011.1  -0.4  739  292  +5.4         
03 22.04.18 190 (Ю) 20000 м    10/0 средняя 
[Ac und]
+12.2 -0.3 42 +12  1010.7  0.2  739  285           
06 22.04.18 220 (ЮЗ) 5{10}  20000 м    10/0 средняя 
[Ac und]
+15.8 +0.3 35 +16  1011  0.6  740  282           
09 22.04.18 210 (ЮЗ) 3{10}  20000 м    10/0 средняя 
[Ac und]
+18.6 +1.4 32 +19  1010.2  -0.5  740  279           
12 22.04.18 190 (Ю) 20000 м    10/0 средняя 
[Ac und]
+17.1 +3 39 +19  1010.9  0.5  740  280    +19       
18 22.04.18 090 (В) 20000 м  {ливн. осадки}  10/0 средняя 
[Ac und]
+9.5 +8.3 92 +11  1012.6  0.1  741  287           
21 22.04.18 050 (СВ) 20000 м    10/0 средняя 
[Ac und]
+8.6 +7.7 94 +9  1011.3  -1.4  740  288           
00 23.04.18 100 (В) 20000 м  {ливн. осадки}  10/0 средняя 
[Ac und]
+9.1 +8.1 93 +9  1010.1  -1.2  739  287  +7.6    0.7     
03 23.04.18 170 (Ю) 20000 м    10/0 средняя 
[Ac und]
+14.8 +4.9 51 +14  1008.3  -1.2  738  281           
06 23.04.18 210 (ЮЗ) 4{13}  10 км  слаб. ливневой дождь  н/о 
+15.6 +8.3 62 +16  1008.3  -1.2  738  280           
12 23.04.18 210 (ЮЗ) 20000 м  в посл. час ливневой дождь  10/10 600 м кучево-дожд. 
[Cb cap]
+12 +11.2 95 +15  1012  1.2  740  284    +17.7     
15 23.04.18 210 (ЮЗ) 2000 м  дымка  3/3 1000 м 
[Sc]
+8.8 +8.3 97 +9  1014.4  2.1  742  288           
18 23.04.18 тихо ()   0200 м  туман  ясно 
+6.3 +6 98 +6  1015.8  1.1  743  292           
21 23.04.18 160 (Ю) 0200 м  туман  ясно 
+6.7 +6.5 99 +8  1017  1.2  744  291           
00 24.04.18 120 (ЮВ) 0500 м  туман  ясно 
+6 +5.8 99 +6  1017.3  0.2  744  292  +5.6         
03 24.04.18 140 (ЮВ) 20000 м  {туман}  6/0 средняя 
[Ac As]
+9.3 +9.1 99 +9  1017.4  0.4  744  288           
06 24.04.18 130 (ЮВ) 20000 м  {туман}  10/0 верхняя 
[Cs]
+14.1 +9.8 75 +15  1014.8  -2  743  283           
09 24.04.18 140 (ЮВ) 20000 м    10/0 верхняя 
[Cs]
+16.9 +8.1 56 +17  1012.6  -2  741  280           
12 24.04.18 120 (ЮВ) 20000 м    10/0 средняя 
[Ac und]
+17.2 +6.5 49 +17  1009.2  -3.2  739  279    +18.3       
15 24.04.18 080 (В) 20000 м    10/0 средняя 
[Ac und]
+14.1 +8.3 68 +14  1007.1  -2.3  737  281           
Время (UTC), дата Ветер
(°,м/с) 
Видим.   Явления Облачность Т
(°С)
Тd
(°С)
f(%) Тe
(°С)
Pmin
(гПа)
dP
(гПа)
Po
(мм)
O2
(г/м3)
Тmin Tmax R s Состояние
почвы

Для получения пояснительной информации подведите курсор к названию столбца.

ПОГОДА в Волчихе - архив

Всё, что Вы хотите узнать о погоде в Волчихе - удобно и подробно!

Выберите нужную дату (начиная с 1 января 2015* года) и нажмите кнопку "Найти".
Будут отображены архивные сводки погоды по пункту Волчиха, начиная с указанной даты.


Отображать данные в формате CSV (для использования в таблицах Excel)


Внимание! Наш архив погоды предназначен исключительно для личного некоммерческого использования в познавательных целях. Если Вам необходимы официальные справки о состоянии погоды (для производственных, юридических, коммерческих и т.п. целей), обращайтесь в органы Росгидромета.

*Примечание: данная дата относится к архиву по метеостанциям СССР (Россия, СНГ, Балтия).
Архив по метеостанциям Зарубежной Европы и Азии (кроме Китая) хранится 10 дней, по другим регионам земного шара (Китай, Африка, Америка, Австралия, Океания) - 1 день.

Волчиха - район местоположения метеостанции


Название, широта, долгота, высота метеостанции:
Волчиха 52°ш. 80.4°д. 208 м над ур. моря [Российская Федерация]

Дополнительная информация

В oтличие oт бoльшинства пoгoдных сайтoв мы публикуем пoдрoбную метеoинфoрмацию в детальнoм прoфессиoнальнoм фoрмате.

Характеристики температуры и влажнoсти вoздуха измеряются на высoте 2 м в тени вдали oт зданий и деревьев.
Скoрoсть ветра измеряется на высoте 10 м (на урoвне рoста челoвека скoрoсть ветра ниже в 1.5-2 раза). Если метеoстанция нахoдится в гoрoде или в лесу, тo скoрoсть ветра занижена на 2-4 м/с пo сравнению с oткрытым местoм. Скoрoсть ветра над акватoриями крупных рек и oзёр, а также на вершинах хoлмoв на 2-5 м/с выше, чем в oбычных услoвиях.
Атмoсфернoе давление в разных тoчках местнoсти мoжет значительнo oтличаться oт давления на метеoстанции, в зависимoсти oт услoвий рельефа (при пoдъёме на 10 м давление пoнижается примернo на 1 мм рт.ст.).